• en France
  • Liste des pays
  • À 7 jours
  • Température de l'eau
  • Carte satellitaire
  • Carte météo
  • Widgets météo
  • user-avatar
    Se connecter

    Météo par heure à Leonia

    Ce jour, 16 Octobre, Mardi

    Heure Température Précipitation Vent Pression Humidité
    00:00 +13°C° 0 mm 3 m/s 756 mmHg 53%
    01:00 +14°C° 0 mm 4 m/s 756 mmHg 52%
    02:00 +13°C° 0 mm 4 m/s 756 mmHg 53%
    03:00 +13°C° 0 mm 3 m/s 756 mmHg 54%
    04:00 +13°C° 0 mm 3 m/s 756 mmHg 55%
    05:00 +12°C° 0 mm 3 m/s 756 mmHg 56%
    06:00 +12°C° 0 mm 3 m/s 756 mmHg 56%
    07:00 +12°C° 0 mm 3 m/s 756 mmHg 56%
    08:00 +14°C° 0 mm 3 m/s 756 mmHg 51%
    09:00 +17°C° 0 mm 3 m/s 756 mmHg 47%
    10:00 +18°C° 0 mm 3 m/s 756 mmHg 43%
    11:00 +20°C° 0 mm 3 m/s 756 mmHg 40%
    12:00 +21°C° 0 mm 4 m/s 756 mmHg 38%
    13:00 +22°C° 0 mm 4 m/s 756 mmHg 35%
    14:00 +22°C° 0 mm 3 m/s 756 mmHg 38%
    15:00 +21°C° 0 mm 3 m/s 756 mmHg 40%
    16:00 +20°C° 0 mm 2 m/s 756 mmHg 43%
    17:00 +19°C° 0 mm 2 m/s 756 mmHg 45%
    18:00 +18°C° 0 mm 3 m/s 756 mmHg 47%
    19:00 +17°C° 0 mm 3 m/s 756 mmHg 49%
    20:00 +16°C° 0 mm 3 m/s 756 mmHg 50%
    21:00 +16°C° 0 mm 3 m/s 756 mmHg 51%
    22:00 +14°C° 0 mm 3 m/s 756 mmHg 52%
    23:00 +14°C° 0 mm 3 m/s 756 mmHg 53%

    Demain, 17 Octobre, Mercredi

    Heure Température Précipitation Vent Pression Humidité
    00:00 +15°C° 0 mm 2 m/s 756 mmHg 54%
    01:00 +14°C° 0 mm 2 m/s 756 mmHg 55%
    02:00 +14°C° 0 mm 2 m/s 756 mmHg 56%
    03:00 +14°C° 0 mm 2 m/s 756 mmHg 57%
    04:00 +14°C° 0 mm 2 m/s 756 mmHg 58%
    05:00 +13°C° 0 mm 2 m/s 756 mmHg 58%
    06:00 +13°C° 0 mm 2 m/s 756 mmHg 59%
    07:00 +13°C° 0 mm 2 m/s 756 mmHg 59%
    08:00 +15°C° 0 mm 2 m/s 756 mmHg 54%
    09:00 +17°C° 0 mm 3 m/s 757 mmHg 49%
    10:00 +19°C° 0 mm 3 m/s 757 mmHg 43%
    11:00 +20°C° 0 mm 3 m/s 756 mmHg 41%
    12:00 +21°C° 0 mm 3 m/s 756 mmHg 39%
    13:00 +22°C° 0 mm 3 m/s 756 mmHg 36%
    14:00 +21°C° 0 mm 3 m/s 756 mmHg 39%
    15:00 +21°C° 0 mm 2 m/s 755 mmHg 42%
    16:00 +20°C° 0 mm 2 m/s 755 mmHg 45%
    17:00 +19°C° 0 mm 2 m/s 755 mmHg 47%
    18:00 +18°C° 0 mm 2 m/s 755 mmHg 49%
    19:00 +17°C° 0 mm 2 m/s 756 mmHg 51%
    20:00 +17°C° 0.1 mm 2 m/s 756 mmHg 52%
    21:00 +16°C° 0.1 mm 2 m/s 756 mmHg 54%
    22:00 +16°C° 0.1 mm 2 m/s 756 mmHg 55%
    23:00 +16°C° 0.1 mm 2 m/s 756 mmHg 57%

    Après-demain, 18 Octobre, Jeudi

    Heure Température Précipitation Vent Pression Humidité
    00:00 +16°C° 0.1 mm 3 m/s 755 mmHg 59%
    01:00 +16°C° 0.1 mm 3 m/s 755 mmHg 61%
    02:00 +15°C° 0.3 mm 2 m/s 755 mmHg 67%
    03:00 +15°C° 0.3 mm 2 m/s 755 mmHg 73%
    04:00 +14°C° 0.3 mm 2 m/s 755 mmHg 78%
    05:00 +14°C° 0 mm 2 m/s 755 mmHg 79%
    06:00 +14°C° 0 mm 2 m/s 755 mmHg 80%
    07:00 +14°C° 0 mm 1 m/s 755 mmHg 81%
    08:00 +15°C° 0 mm 2 m/s 755 mmHg 73%
    09:00 +17°C° 0 mm 2 m/s 755 mmHg 66%
    10:00 +18°C° 0 mm 2 m/s 755 mmHg 59%
    11:00 +19°C° 0 mm 2 m/s 755 mmHg 55%
    12:00 +19°C° 0 mm 2 m/s 755 mmHg 51%
    13:00 +20°C° 0 mm 2 m/s 754 mmHg 47%
    14:00 +20°C° 0 mm 2 m/s 754 mmHg 50%
    15:00 +19°C° 0 mm 2 m/s 754 mmHg 52%
    16:00 +20°C° 0 mm 1 m/s 754 mmHg 55%
    17:00 +19°C° 0 mm 1 m/s 754 mmHg 58%
    18:00 +18°C° 0 mm 1 m/s 755 mmHg 62%
    19:00 +16°C° 0 mm 1 m/s 755 mmHg 66%
    20:00 +15°C° 0 mm 1 m/s 755 mmHg 68%
    21:00 +15°C° 0 mm 2 m/s 755 mmHg 71%
    22:00 +14°C° 0 mm 2 m/s 755 mmHg 73%
    23:00 +14°C° 0 mm 2 m/s 755 mmHg 75%

    19 Octobre, Vendredi

    Heure Température Précipitation Vent Pression Humidité
    00:00 +13°C° 0 mm 2 m/s 756 mmHg 78%
    01:00 +13°C° 0 mm 2 m/s 756 mmHg 80%
    02:00 +12°C° 0 mm 2 m/s 756 mmHg 82%
    03:00 +12°C° 0 mm 2 m/s 756 mmHg 85%
    04:00 +12°C° 0 mm 2 m/s 756 mmHg 87%
    05:00 +12°C° 0 mm 2 m/s 756 mmHg 89%
    06:00 +10°C° 0 mm 2 m/s 756 mmHg 90%
    07:00 +10°C° 0 mm 2 m/s 756 mmHg 92%
    08:00 +13°C° 0 mm 2 m/s 757 mmHg 86%
    09:00 +14°C° 0 mm 2 m/s 757 mmHg 80%
    10:00 +14°C° 0 mm 3 m/s 757 mmHg 74%
    11:00 +16°C° 0 mm 3 m/s 757 mmHg 72%
    12:00 +16°C° 0 mm 3 m/s 757 mmHg 70%
    13:00 +17°C° 0 mm 3 m/s 757 mmHg 68%
    14:00 +17°C° 0 mm 3 m/s 757 mmHg 68%
    15:00 +16°C° 0 mm 3 m/s 757 mmHg 68%
    16:00 +16°C° 0 mm 2 m/s 757 mmHg 69%
    17:00 +15°C° 0 mm 2 m/s 757 mmHg 73%
    18:00 +14°C° 0 mm 2 m/s 758 mmHg 76%
    19:00 +13°C° 0 mm 2 m/s 758 mmHg 80%
    20:00 +12°C° 0 mm 2 m/s 758 mmHg 81%
    21:00 +12°C° 0 mm 1 m/s 758 mmHg 81%
    22:00 +12°C° 0 mm 1 m/s 758 mmHg 81%
    23:00 +11°C° 0 mm 1 m/s 758 mmHg 81%

    20 Octobre, Samedi

    Heure Température Précipitation Vent Pression Humidité
    00:00 +11°C° 0 mm 1 m/s 758 mmHg 81%
    01:00 +11°C° 0 mm 1 m/s 758 mmHg 80%
    02:00 +11°C° 0 mm 1 m/s 758 mmHg 81%
    03:00 +10°C° 0 mm 1 m/s 758 mmHg 82%
    04:00 +10°C° 0 mm 1 m/s 758 mmHg 83%
    05:00 +10°C° 0 mm 1 m/s 758 mmHg 84%
    06:00 +9°C° 0 mm 1 m/s 758 mmHg 85%
    07:00 +8°C° 0 mm 2 m/s 759 mmHg 85%
    08:00 +9°C° 0 mm 2 m/s 759 mmHg 80%
    09:00 +10°C° 0 mm 2 m/s 759 mmHg 74%
    10:00 +11°C° 0 mm 3 m/s 759 mmHg 69%
    11:00 +12°C° 0 mm 3 m/s 759 mmHg 64%
    12:00 +12°C° 0 mm 4 m/s 758 mmHg 59%
    13:00 +12°C° 0 mm 4 m/s 758 mmHg 55%
    14:00 +12°C° 0 mm 4 m/s 758 mmHg 56%
    15:00 +11°C° 0 mm 4 m/s 758 mmHg 57%
    16:00 +11°C° 0 mm 3 m/s 758 mmHg 58%
    17:00 +11°C° 0 mm 3 m/s 758 mmHg 60%
    18:00 +10°C° 0 mm 3 m/s 758 mmHg 63%
    19:00 +9°C° 0 mm 3 m/s 759 mmHg 66%
    20:00 +9°C° 0 mm 3 m/s 759 mmHg 68%
    21:00 +9°C° 0 mm 3 m/s 759 mmHg 70%
    22:00 +8°C° 0 mm 3 m/s 759 mmHg 72%
    23:00 +8°C° 0 mm 3 m/s 759 mmHg 76%

    21 Octobre, Dimanche

    Heure Température Précipitation Vent Pression Humidité
    00:00 +7°C° 0 mm 2 m/s 759 mmHg 80%
    01:00 +7°C° 0 mm 2 m/s 759 mmHg 84%
    02:00 +6°C° 0 mm 2 m/s 759 mmHg 86%
    03:00 +6°C° 0 mm 2 m/s 759 mmHg 88%
    04:00 +6°C° 0 mm 2 m/s 759 mmHg 90%
    05:00 +6°C° 0 mm 2 m/s 760 mmHg 91%
    06:00 +7°C° 0 mm 1 m/s 760 mmHg 91%
    07:00 +6°C° 0 mm 1 m/s 760 mmHg 92%
    08:00 +8°C° 0 mm 1 m/s 760 mmHg 84%
    09:00 +8°C° 0 mm 2 m/s 760 mmHg 76%
    10:00 +10°C° 0 mm 2 m/s 761 mmHg 68%
    11:00 +10°C° 0 mm 2 m/s 760 mmHg 63%
    12:00 +12°C° 0 mm 2 m/s 760 mmHg 59%
    13:00 +13°C° 0 mm 2 m/s 760 mmHg 54%
    14:00 +13°C° 0 mm 2 m/s 760 mmHg 56%
    15:00 +12°C° 0 mm 1 m/s 760 mmHg 57%
    16:00 +12°C° 0 mm 1 m/s 760 mmHg 59%
    17:00 +11°C° 0 mm 1 m/s 760 mmHg 63%
    18:00 +10°C° 0 mm 1 m/s 760 mmHg 66%
    19:00 +10°C° 0 mm 1 m/s 760 mmHg 69%
    20:00 +9°C° 0 mm 1 m/s 760 mmHg 72%
    21:00 +9°C° 0 mm 1 m/s 760 mmHg 74%
    22:00 +8°C° 0 mm 1 m/s 760 mmHg 76%
    23:00 +8°C° 0 mm 1 m/s 760 mmHg 78%
    Voir plus